sat.trackr.live / text

‹ back to catalog

STARLINK-4198

NORAD 52858 · 2022-062AE

PAYLOAD ACTIVE UNKNOWN

§ Identity

Operator
Country
US
Launch date
2022-06-17
Launch site
AFETR
Launch vehicle
Mass (kg)
RCS (m²)

Purposes: comms

External: N2YO · Heavens-Above · Gunter

§ Orbital elements

Epoch: 2026-05-25T00:01:01.173792Z

Period
95.44 min
Inclination
53.2140°
Eccentricity
0.0001608
Mean motion
15.08852675 rev/d
Perigee alt
538.6 km
Apogee alt
540.8 km
Semi-major
6,917.8 km
B*
-1.9910e-4
RAAN
41.5740°
Arg perigee
89.9831°
Mean anomaly
270.1345°
Rev number
21,744

§ Raw data

STARLINK-41981 52858U 22062AE  26145.00070803 -.00003457  00000+0 -19910-3 0  99992 52858  53.2140  41.5740 0001608  89.9831 270.1345 15.08852675217446

JSON: /api/v1/satellites/52858 · /tle

For live sub-satellite position, see the globe view (requires WebGL).

§ Visibility from observer

Set your observer location to see the next 7 days of passes ≥ 10°. The values pass through the URL so the page stays shareable.

No JS? Fill the form by hand. The geolocation button needs JavaScript.